Météo par heure à Aliaga

Ce jour, 13 Mai, Jeudi

Heure Température Précipitation Vent Pression Humidité
00:00 +4°C° 0 mm 4 m/s 656 mmHg 82%
01:00 +4°C° 0 mm 4 m/s 656 mmHg 84%
02:00 +4°C° 0 mm 3 m/s 656 mmHg 86%
03:00 +3°C° 0 mm 3 m/s 656 mmHg 88%
04:00 +4°C° 0 mm 3 m/s 656 mmHg 84%
05:00 +4°C° 0 mm 4 m/s 656 mmHg 81%
06:00 +4°C° 0 mm 4 m/s 656 mmHg 77%
07:00 +6°C° 0 mm 5 m/s 656 mmHg 68%
08:00 +8°C° 0 mm 6 m/s 656 mmHg 59%
09:00 +10°C° 0 mm 7 m/s 656 mmHg 49%
10:00 +11°C° 0 mm 7 m/s 656 mmHg 46%
11:00 +14°C° 0 mm 7 m/s 656 mmHg 43%
12:00 +16°C° 0 mm 7 m/s 656 mmHg 39%
13:00 +16°C° 0 mm 7 m/s 656 mmHg 41%
14:00 +15°C° 0 mm 8 m/s 656 mmHg 42%
15:00 +15°C° 0 mm 8 m/s 655 mmHg 44%
16:00 +14°C° 0.2 mm 7 m/s 655 mmHg 54%
17:00 +11°C° 0.2 mm 6 m/s 655 mmHg 65%
18:00 +10°C° 0.2 mm 5 m/s 654 mmHg 76%
19:00 +10°C° 0.3 mm 5 m/s 654 mmHg 76%
20:00 +10°C° 0.3 mm 5 m/s 654 mmHg 77%
21:00 +9°C° 0.3 mm 5 m/s 654 mmHg 77%
22:00 +9°C° 0.1 mm 5 m/s 654 mmHg 80%
23:00 +8°C° 0.1 mm 5 m/s 654 mmHg 82%

Demain, 14 Mai, Vendredi

Heure Température Précipitation Vent Pression Humidité
00:00 +8°C° 0.1 mm 6 m/s 654 mmHg 85%
01:00 +7°C° 0.2 mm 6 m/s 654 mmHg 86%
02:00 +7°C° 0.2 mm 6 m/s 653 mmHg 88%
03:00 +5°C° 0.2 mm 6 m/s 653 mmHg 90%
04:00 +4°C° 0.1 mm 7 m/s 654 mmHg 88%
05:00 +4°C° 0.1 mm 7 m/s 654 mmHg 86%
06:00 +3°C° 0.1 mm 7 m/s 655 mmHg 84%
07:00 +4°C° 0 mm 7 m/s 655 mmHg 78%
08:00 +5°C° 0 mm 7 m/s 655 mmHg 72%
09:00 +6°C° 0 mm 8 m/s 656 mmHg 67%
10:00 +9°C° 0 mm 8 m/s 656 mmHg 59%
11:00 +10°C° 0 mm 8 m/s 656 mmHg 51%
12:00 +11°C° 0 mm 8 m/s 657 mmHg 43%
13:00 +12°C° 0 mm 7 m/s 657 mmHg 41%
14:00 +14°C° 0 mm 7 m/s 657 mmHg 38%
15:00 +14°C° 0 mm 6 m/s 657 mmHg 35%
16:00 +14°C° 0 mm 6 m/s 657 mmHg 37%
17:00 +14°C° 0 mm 6 m/s 657 mmHg 39%
18:00 +14°C° 0 mm 6 m/s 657 mmHg 40%
19:00 +12°C° 0 mm 4 m/s 657 mmHg 45%
20:00 +11°C° 0 mm 3 m/s 657 mmHg 49%
21:00 +11°C° 0 mm 1 m/s 657 mmHg 53%
22:00 +11°C° 0 mm 1 m/s 656 mmHg 53%
23:00 +10°C° 0 mm 2 m/s 656 mmHg 54%

Après-demain, 15 Mai, Samedi

Heure Température Précipitation Vent Pression Humidité
00:00 +9°C° 0 mm 2 m/s 656 mmHg 54%
01:00 +10°C° 0 mm 2 m/s 656 mmHg 53%
02:00 +10°C° 0 mm 3 m/s 655 mmHg 52%
03:00 +10°C° 0 mm 3 m/s 655 mmHg 52%
04:00 +10°C° 0 mm 4 m/s 655 mmHg 51%
05:00 +11°C° 0 mm 4 m/s 655 mmHg 51%
06:00 +11°C° 0 mm 4 m/s 655 mmHg 51%
07:00 +13°C° 0 mm 5 m/s 656 mmHg 46%
08:00 +15°C° 0 mm 7 m/s 656 mmHg 42%
09:00 +17°C° 0 mm 8 m/s 657 mmHg 38%
10:00 +18°C° 0 mm 9 m/s 657 mmHg 38%
11:00 +21°C° 0 mm 9 m/s 657 mmHg 39%
12:00 +22°C° 0 mm 10 m/s 657 mmHg 39%
13:00 +22°C° 0 mm 9 m/s 657 mmHg 40%
14:00 +22°C° 0 mm 9 m/s 657 mmHg 40%
15:00 +22°C° 0 mm 9 m/s 657 mmHg 40%
16:00 +21°C° 0 mm 9 m/s 657 mmHg 44%
17:00 +20°C° 0 mm 8 m/s 657 mmHg 49%
18:00 +20°C° 0 mm 8 m/s 657 mmHg 53%
19:00 +17°C° 0 mm 7 m/s 656 mmHg 57%
20:00 +16°C° 0 mm 6 m/s 656 mmHg 60%
21:00 +15°C° 0 mm 5 m/s 656 mmHg 64%
22:00 +14°C° 0 mm 5 m/s 656 mmHg 67%
23:00 +14°C° 0 mm 5 m/s 656 mmHg 70%

16 Mai, Dimanche

Heure Température Précipitation Vent Pression Humidité
00:00 +13°C° 0 mm 5 m/s 656 mmHg 74%
01:00 +13°C° 0 mm 4 m/s 655 mmHg 74%
02:00 +12°C° 0 mm 4 m/s 655 mmHg 75%
03:00 +12°C° 0 mm 4 m/s 655 mmHg 76%
04:00 +13°C° 0 mm 4 m/s 655 mmHg 74%
05:00 +13°C° 0 mm 4 m/s 655 mmHg 71%
06:00 +13°C° 0 mm 4 m/s 655 mmHg 69%
07:00 +15°C° 0 mm 5 m/s 656 mmHg 61%
08:00 +17°C° 0 mm 6 m/s 656 mmHg 53%
09:00 +18°C° 0 mm 7 m/s 657 mmHg 45%
10:00 +21°C° 0 mm 7 m/s 657 mmHg 42%
11:00 +22°C° 0 mm 8 m/s 657 mmHg 39%
12:00 +23°C° 0 mm 8 m/s 657 mmHg 36%
13:00 +23°C° 0 mm 8 m/s 657 mmHg 37%
14:00 +23°C° 0 mm 8 m/s 656 mmHg 39%
15:00 +23°C° 0 mm 8 m/s 656 mmHg 40%
16:00 +22°C° 0 mm 7 m/s 656 mmHg 44%
17:00 +21°C° 0 mm 6 m/s 656 mmHg 48%
18:00 +20°C° 0 mm 5 m/s 656 mmHg 52%
19:00 +18°C° 0 mm 4 m/s 656 mmHg 59%
20:00 +16°C° 0 mm 3 m/s 656 mmHg 67%
21:00 +15°C° 0 mm 2 m/s 656 mmHg 74%
22:00 +14°C° 0 mm 2 m/s 656 mmHg 75%
23:00 +13°C° 0 mm 3 m/s 656 mmHg 75%

17 Mai, Lundi

Heure Température Précipitation Vent Pression Humidité
00:00 +12°C° 0 mm 4 m/s 656 mmHg 76%
01:00 +11°C° 0 mm 4 m/s 656 mmHg 77%
02:00 +10°C° 0 mm 4 m/s 656 mmHg 77%
03:00 +8°C° 0 mm 4 m/s 656 mmHg 78%
04:00 +7°C° 0 mm 4 m/s 656 mmHg 75%
05:00 +6°C° 0 mm 4 m/s 656 mmHg 72%
06:00 +6°C° 0 mm 5 m/s 657 mmHg 69%
07:00 +7°C° 0 mm 5 m/s 657 mmHg 64%
08:00 +7°C° 0 mm 6 m/s 657 mmHg 58%
09:00 +8°C° 0 mm 6 m/s 658 mmHg 52%
10:00 +10°C° 0 mm 6 m/s 658 mmHg 48%
11:00 +11°C° 0 mm 6 m/s 659 mmHg 44%
12:00 +13°C° 0 mm 6 m/s 659 mmHg 40%
13:00 +14°C° 0 mm 6 m/s 659 mmHg 38%
14:00 +14°C° 0 mm 6 m/s 659 mmHg 36%
15:00 +15°C° 0 mm 7 m/s 659 mmHg 34%
16:00 +14°C° 0 mm 7 m/s 659 mmHg 37%
17:00 +12°C° 0 mm 7 m/s 659 mmHg 40%
18:00 +11°C° 0 mm 8 m/s 659 mmHg 42%
19:00 +9°C° 0 mm 7 m/s 659 mmHg 52%
20:00 +7°C° 0 mm 6 m/s 660 mmHg 62%
21:00 +5°C° 0 mm 5 m/s 660 mmHg 71%
22:00 +5°C° 0 mm 4 m/s 660 mmHg 73%
23:00 +4°C° 0 mm 3 m/s 660 mmHg 76%

18 Mai, Mardi

Heure Température Précipitation Vent Pression Humidité
00:00 +4°C° 0 mm 3 m/s 660 mmHg 78%
01:00 +4°C° 0 mm 3 m/s 660 mmHg 78%
02:00 +4°C° 0 mm 2 m/s 660 mmHg 78%
03:00 +4°C° 0 mm 2 m/s 660 mmHg 78%
04:00 +4°C° 0 mm 2 m/s 660 mmHg 74%
05:00 +5°C° 0 mm 2 m/s 660 mmHg 71%
06:00 +5°C° 0 mm 2 m/s 661 mmHg 67%
07:00 +7°C° 0 mm 2 m/s 661 mmHg 59%
08:00 +9°C° 0 mm 2 m/s 661 mmHg 52%
09:00 +12°C° 0 mm 2 m/s 661 mmHg 44%
10:00 +13°C° 0 mm 2 m/s 662 mmHg 40%
11:00 +14°C° 0 mm 3 m/s 662 mmHg 36%
12:00 +17°C° 0 mm 3 m/s 662 mmHg 32%
13:00 +17°C° 0 mm 3 m/s 662 mmHg 32%
14:00 +18°C° 0 mm 3 m/s 662 mmHg 32%
15:00 +19°C° 0 mm 4 m/s 662 mmHg 32%
16:00 +18°C° 0 mm 4 m/s 662 mmHg 34%
17:00 +18°C° 0 mm 4 m/s 661 mmHg 36%
18:00 +18°C° 0 mm 4 m/s 661 mmHg 39%
19:00 +16°C° 0 mm 3 m/s 661 mmHg 44%
20:00 +14°C° 0 mm 2 m/s 661 mmHg 49%
21:00 +12°C° 0 mm 1 m/s 661 mmHg 54%
22:00 +12°C° 0 mm 1 m/s 661 mmHg 54%
23:00 +12°C° 0 mm 1 m/s 661 mmHg 54%
Voir plus

Nous avons besoin de votre consentement

Meteoprog et ses fournisseurs de services peuvent stocker et accéder à des données personnelles telles que des cookies, des identifiants d'appareils ou d'autres technologies similaires sur votre appareil et traiter ces données pour personnaliser le contenu et les publicités, ainsi que pour fournir des fonctionnalités de médias sociaux et analyser le trafic.

  • Stocker et/ou accéder à des informations sur votre appareil

    Des cookies, des identifiants d'appareils ou d'autres informations peuvent être stockés ou accessibles sur votre appareil aux fins indiquées ci-dessus.

  • Annonces et contenus personnalisés, mesure des annonces et des contenus, connaissance de l'audience et développement de produits

    Les annonces et le contenu peuvent être personnalisés en fonction d'un profil. D'autres données peuvent être ajoutées pour mieux personnaliser les annonces et le contenu. Les performances des publicités et du contenu peuvent être mesurées. Il est possible d'obtenir des informations sur le public qui a vu les publicités et le contenu. Ces données peuvent être utilisées pour développer ou améliorer l'expérience de l'utilisateur, les systèmes et les logiciels.

En cliquant sur "J'accepte", vous autorisez l'utilisation de cookies, des identifiants d'appareils, des balises web ou d'autres technologies similaires. Vos paramètres peuvent être modifiés dans le navigateur de votre appareil.

Dans certains cas, des intérêts légitimes peuvent être invoqués plutôt qu'un consentement. Vous pouvez en savoir plus à ce sujet dans notre Politique de confidentialité et de cookies.